Theta_e
328 329 330 330 330 331 330 330 330 329 330 331 330 330 332 336 337 336 335 334 334 334 333 333 334 336 337 336 336 335 335 333 332 332 331 331 330 329 329 328 328 328
325 327 329 330 330 331 332 332 331 330 330 331 332 332 333 336 337 337 335 334 334 334 334 333 332 333 334 336 335 334 334 334 332 333 331 330 330 330 329 329 329 330
321 323 325 326 328 329 330 332 332 332 331 332 333 333 333 334 335 336 335 334 333 333 334 333 332 332 334 335 336 335 335 333 332 332 332 331 332 331 331 331 331 331
316 318 321 324 327 329 330 331 331 332 333 332 333 334 334 333 334 335 336 337 333 332 333 333 332 333 334 335 336 333 334 334 334 333 332 332 333 333 332 333 333 333
313 314 316 319 323 326 329 329 329 331 331 332 333 334 334 334 333 334 335 336 335 333 333 332 332 331 332 333 334 333 334 334 334 333 332 331 332 333 333 333 332 332
311 311 314 316 318 321 323 325 328 329 330 330 331 333 334 334 333 333 334 334 335 334 333 332 332 332 333 334 334 333 333 331 332 332 331 332 332 333 333 332 332 332
308 309 310 313 315 317 319 321 325 328 329 330 331 331 333 333 333 332 332 333 334 334 332 332 332 330 331 332 332 332 332 333 332 332 331 332 333 332 333 332 331 331
306 307 307 309 311 313 315 317 321 324 327 329 329 331 332 331 332 333 332 332 332 333 332 332 332 330 329 331 331 332 333 334 333 331 330 330 331 331 331 331 331 331
304 304 305 306 308 310 312 315 317 321 325 328 329 330 331 330 331 332 332 332 332 332 331 331 332 330 330 330 330 332 332 332 332 332 330 329 329 329 330 330 329 330
302 302 303 304 305 308 310 313 315 318 322 325 328 329 329 330 332 332 330 330 330 332 331 331 331 331 331 331 332 332 332 332 332 332 331 330 329 330 330 330 329 328
300 301 301 302 304 306 309 312 315 317 320 323 326 327 327 327 329 331 330 330 330 331 331 331 331 332 331 331 332 332 331 331 331 332 331 331 331 330 332 330 329 329
300 300 301 301 304 306 309 312 315 317 319 322 325 326 328 329 329 330 330 331 331 331 331 331 332 332 332 332 332 332 332 331 331 331 332 332 331 330 330 330 330 330
299 299 301 301 303 305 309 311 313 315 317 319 322 325 327 327 329 329 329 329 330 330 330 331 331 331 331 332 332 331 330 330 330 331 332 332 330 330 331 331 330 330
299 300 301 302 304 306 307 310 313 314 316 318 322 324 326 327 328 328 327 328 329 330 330 330 330 330 330 331 332 331 330 329 330 330 331 331 331 331 331 331 331 331
299 300 302 302 303 304 306 309 312 314 316 318 321 323 326 327 328 328 327 328 329 330 330 330 329 330 330 330 331 332 331 329 329 330 330 329 328 328 329 331 331 331
299 300 301 301 302 304 306 309 311 314 316 318 320 322 324 326 329 328 327 326 328 329 330 329 329 330 331 326 326 331 331 331 330 330 329 328 327 326 328 330 330 331
299 299 300 300 302 304 305 306 308 312 315 317 319 321 324 326 328 326 326 328 328 329 329 328 328 329 322 311 313 320 331 331 330 328 328 328 328 328 328 329 330 330
299 299 299 300 302 302 303 304 306 310 314 316 318 320 323 325 325 326 325 326 328 329 328 328 328 327 311 309 310 312 323 330 329 328 328 329 330 329 329 328 327 327
298 298 299 300 301 301 302 304 306 309 313 315 316 317 318 321 323 325 325 326 327 328 327 328 327 318 307 308 308 309 312 326 329 329 329 329 329 328 326 325 325 325
298 298 299 299 300 301 302 303 306 309 314 315 316 317 317 318 321 323 325 325 326 327 326 328 327 318 305 306 307 307 308 317 328 329 328 328 328 327 326 325 325 325
298 298 298 299 299 301 302 303 306 310 313 314 315 315 314 314 317 322 324 324 326 326 326 326 327 311 304 304 305 305 305 316 328 328 328 327 327 327 327 326 325 326
298 297 297 298 299 301 302 303 306 310 312 314 314 313 313 314 316 321 323 325 326 326 326 325 319 302 302 302 302 303 307 327 328 327 326 326 326 326 326 327 327 327
298 297 298 299 300 301 302 304 306 310 312 314 312 311 311 311 312 318 325 325 325 326 325 320 311 302 301 301 302 303 314 328 327 327 326 325 325 325 326 326 326 326
298 298 298 300 300 301 302 304 308 311 312 313 311 310 310 311 315 320 324 324 324 324 322 316 314 306 299 301 302 305 321 327 326 325 324 324 324 325 324 325 327 333
299 299 299 300 301 302 303 306 309 311 313 313 313 313 312 315 322 323 322 323 324 323 326 319 314 309 299 301 303 307 319 327 326 324 323 323 324 323 323 324 327 332
299 301 301 301 301 302 304 307 310 311 311 311 311 311 312 316 321 322 322 323 324 323 323 319 314 310 305 301 304 307 312 326 325 324 323 323 323 322 322 323 326 328
Wind_Speed
6 6 7 8 9 8 8 9 8 9 11 11 11 12 12 12 10 11 11 11 11 10 9 10 8 9 9 9 9 8 8 9 8 7 8 8 8 8 8 8 6 7
10 9 8 8 7 8 8 8 9 9 11 12 12 11 11 11 10 10 11 11 11 11 10 10 11 9 8 9 8 9 8 8 8 6 8 9 8 8 9 9 9 7
10 11 11 11 10 10 10 9 9 9 9 11 12 12 11 11 11 9 10 11 11 10 10 11 12 11 10 10 9 8 9 9 9 8 8 9 8 8 9 8 8 9
11 10 10 11 12 12 10 9 9 8 9 10 11 12 12 11 11 11 10 11 10 9 9 11 11 11 12 10 10 9 10 10 9 8 9 7 8 8 8 7 8 8
11 11 10 10 11 12 11 10 10 10 10 11 11 12 12 11 10 10 10 10 10 10 10 9 7 9 11 10 10 9 10 10 9 9 9 9 8 9 8 7 8 9
10 10 10 10 10 11 11 11 12 11 12 13 13 11 12 12 11 13 12 11 10 12 12 9 9 9 10 11 11 11 9 8 8 9 9 10 9 8 7 8 9 9
12 12 14 11 11 11 12 12 11 11 12 12 13 12 12 12 13 13 12 11 11 12 12 11 11 12 10 9 10 12 11 12 12 11 10 10 10 10 9 8 9 10
12 11 12 12 12 12 12 12 11 11 12 13 14 13 11 12 14 12 10 11 12 12 10 12 13 13 11 9 10 11 12 10 10 11 11 9 8 9 10 8 8 10
11 10 11 13 13 12 12 12 12 12 12 13 13 13 10 13 14 12 11 12 12 11 10 11 11 11 12 12 12 12 13 10 11 12 11 11 12 11 10 9 10 10
11 11 12 12 13 12 14 13 12 12 12 13 14 13 12 11 12 11 11 10 12 11 12 12 12 10 11 12 13 13 13 12 12 11 11 11 11 11 11 10 11 10
12 12 12 13 13 12 14 14 13 12 12 13 14 14 13 13 12 11 13 15 15 13 12 12 12 11 11 12 12 11 12 12 12 12 12 13 12 11 11 10 11 11
11 12 12 13 14 14 14 14 13 12 13 13 14 16 14 13 11 12 14 15 14 13 13 11 10 12 13 13 13 13 12 12 11 12 12 11 11 10 10 11 11 11
11 11 12 12 13 13 13 14 14 13 14 15 14 15 14 13 13 13 13 10 8 10 10 11 12 11 11 11 12 12 12 11 11 12 12 12 11 12 12 11 11 10
10 10 11 12 12 13 14 14 14 13 14 14 14 15 15 14 13 13 11 12 13 13 12 10 10 10 10 11 11 12 11 11 11 11 11 11 12 12 11 10 10 10
9 9 10 11 12 13 14 14 14 14 14 14 14 16 15 14 12 14 16 14 11 11 11 11 12 12 11 12 11 12 12 11 12 12 12 12 11 12 11 10 10 9
9 10 11 12 12 13 14 14 14 14 14 14 14 16 16 15 12 15 15 13 11 10 10 11 12 11 14 19 16 11 11 11 10 10 11 10 10 11 11 11 10 8
8 10 11 12 12 12 13 15 17 15 14 14 14 16 15 12 11 9 6 11 13 12 13 12 12 11 18 17 18 18 13 12 12 11 9 10 10 11 11 10 8 6
8 10 11 12 12 13 14 15 16 16 14 13 14 15 12 11 12 12 9 8 11 12 12 12 12 15 19 19 20 20 18 13 12 11 11 10 10 9 8 7 8 8
8 10 11 12 13 13 14 15 17 17 15 13 14 13 12 12 12 14 14 12 12 12 12 12 12 14 17 19 20 20 20 16 11 11 11 10 9 8 8 8 7 6
8 9 11 12 13 14 14 15 16 17 14 12 13 13 10 11 12 16 15 15 13 13 12 11 13 13 19 19 20 21 20 16 10 11 10 10 10 10 9 9 10 10
8 9 11 12 13 14 15 15 16 15 13 12 12 12 12 11 13 15 15 14 15 13 10 11 11 15 19 20 19 19 18 15 10 10 10 8 8 9 11 11 11 11
7 9 11 12 13 14 15 16 16 14 13 13 13 13 12 11 11 12 15 16 14 13 13 12 9 18 19 18 18 17 19 12 11 11 10 10 9 9 10 11 11 11
7 8 11 12 13 14 16 16 15 14 13 12 13 13 12 13 13 15 16 15 14 13 13 11 11 15 19 18 19 20 17 10 11 10 10 11 10 10 10 9 9 11
7 9 11 12 13 14 16 15 14 12 11 12 13 13 12 15 16 15 13 12 16 14 11 12 11 12 18 19 20 22 16 12 10 10 10 11 10 8 7 8 10 17
7 9 10 11 14 15 15 15 13 11 12 12 12 12 14 15 11 12 12 9 11 12 19 15 11 11 17 20 21 20 15 10 10 10 11 10 10 8 6 7 8 12
7 9 11 12 14 15 15 13 10 10 12 11 12 11 12 16 9 9 14 12 11 11 11 13 11 9 10 14 14 13 14 11 9 10 11 11 9 9 8 6 7 7
Wind_Direction
318 306 289 286 286 278 269 261 248 242 244 249 243 239 233 232 217 206 208 214 210 202 194 208 229 241 227 215 207 201 202 201 199 194 199 201 208 200 202 202 197 198
332 326 316 301 287 280 274 261 256 245 249 248 251 249 245 240 221 207 204 207 207 201 192 194 203 224 238 227 213 208 209 203 201 190 197 203 208 203 209 204 202 201
335 330 326 320 307 294 283 273 262 256 251 254 255 254 250 244 236 217 209 208 210 205 195 198 197 189 215 229 220 215 215 212 208 193 195 205 204 205 211 204 204 202
333 330 325 321 315 307 296 287 279 269 262 258 255 256 253 247 239 232 221 213 213 211 209 212 200 188 192 208 213 217 221 218 210 196 198 199 202 206 208 202 203 204
325 327 326 321 315 311 308 299 291 283 271 263 260 255 256 253 244 238 226 214 201 205 207 211 208 199 199 200 205 213 213 213 208 199 199 199 201 201 203 197 202 206
325 324 321 318 316 315 310 305 298 291 283 274 264 260 256 254 246 234 227 216 201 202 202 188 190 204 199 196 194 204 210 216 216 209 204 204 201 201 198 198 204 208
325 326 322 318 314 310 307 303 298 291 285 276 275 265 257 250 246 238 228 223 208 206 199 183 186 189 198 201 199 201 204 207 205 201 203 207 206 201 200 199 205 209
319 320 317 316 313 310 304 302 300 295 287 284 277 272 256 248 248 247 233 222 215 213 197 189 192 188 180 185 201 205 205 203 200 199 203 203 205 198 202 202 205 213
315 316 318 316 314 309 303 300 301 297 293 284 279 276 257 246 248 246 236 223 221 214 196 196 190 186 187 189 196 205 206 198 202 198 194 200 206 209 201 193 203 214
313 314 315 314 311 309 303 300 297 297 295 288 282 276 265 258 253 243 232 229 227 214 201 198 197 186 185 193 196 198 203 200 202 196 190 194 205 206 201 194 202 210
312 313 314 312 310 306 301 298 298 297 296 289 282 276 257 245 244 230 218 217 218 210 202 200 197 185 184 191 196 198 201 201 201 200 193 196 198 200 199 196 200 208
309 309 310 309 308 306 302 297 295 297 297 293 285 282 270 252 246 222 220 218 213 209 204 196 188 189 190 188 189 194 198 197 197 201 200 194 194 200 204 200 201 203
304 303 304 305 305 303 301 298 297 297 295 292 289 283 271 252 238 223 218 224 214 223 212 196 194 196 192 191 189 190 191 191 194 197 198 196 186 197 201 198 198 200
297 298 300 300 301 302 301 297 295 294 293 291 289 285 275 260 241 219 209 214 210 211 208 197 192 200 199 196 195 193 190 190 192 194 197 192 184 190 194 197 195 198
292 296 296 299 301 301 300 298 296 293 291 290 289 287 274 262 245 217 210 207 207 209 203 195 194 199 197 191 191 192 190 189 192 195 192 188 182 189 189 192 193 193
291 296 298 300 301 302 302 301 296 294 291 291 293 289 280 264 246 220 204 202 206 205 205 199 197 199 198 190 187 187 183 186 187 192 192 192 193 194 195 192 186 190
292 298 301 300 300 301 302 302 299 294 290 290 290 287 280 262 246 247 221 190 195 195 199 205 203 199 196 184 181 182 182 182 182 183 189 193 193 190 189 181 175 156
292 298 300 300 302 303 303 301 297 291 287 285 283 280 276 261 248 236 226 206 200 194 198 209 212 202 193 187 180 180 182 182 179 176 184 191 188 185 178 167 148 127
293 298 300 301 303 303 301 299 296 290 287 288 282 277 284 276 258 240 218 210 205 195 192 207 222 202 185 185 183 181 183 180 177 173 176 181 170 156 146 140 137 123
294 299 299 300 302 301 299 296 293 287 285 285 281 277 275 280 274 245 216 206 202 201 199 202 207 193 183 181 182 183 182 174 167 169 169 170 168 161 155 147 145 147
293 295 299 301 301 299 297 294 289 284 287 289 281 274 278 284 285 252 214 201 202 199 194 191 209 182 182 181 180 178 171 169 168 167 161 157 158 159 157 154 154 161
287 296 299 299 298 297 296 294 288 285 289 287 282 276 274 275 270 245 214 203 199 196 189 187 184 177 178 176 173 171 170 170 169 163 152 149 158 162 160 161 162 161
288 296 298 296 296 296 295 292 288 290 289 283 277 276 280 276 269 244 216 198 193 190 181 175 160 181 173 167 165 167 167 169 164 154 149 151 159 163 161 152 150 159
293 295 295 295 295 293 291 287 284 284 284 279 274 279 280 278 269 229 201 179 172 180 173 165 160 171 172 167 165 168 164 161 157 151 149 152 157 161 154 154 161 165
294 294 291 291 291 289 284 281 280 285 286 277 271 269 276 285 260 188 174 166 163 165 167 165 156 163 170 168 168 164 156 153 149 146 149 156 153 151 156 163 171 169
292 293 290 290 289 285 281 274 282 290 278 272 268 271 279 276 249 176 159 160 158 160 162 157 122 110 145 149 153 154 149 144 146 146 157 158 152 146 152 164 167 163